Theta_e
323 323 321 315 314 315 317 319 321 326 326 327 329 334 338 339 333 327 339 344 342 345 342 338 338 339 338 336 335 334 336 334 331 333 331 327 325 325 326 326 328 329 326
321 324 323 321 318 315 317 320 321 332 337 342 343 340 341 340 331 331 344 346 346 343 341 338 340 336 336 337 336 336 334 333 332 332 330 327 325 328 326 327 326 327 326
318 323 326 325 325 317 314 317 323 333 340 334 343 342 343 344 345 346 345 345 344 341 337 335 339 339 337 336 336 334 334 333 333 332 331 327 326 327 327 327 327 327 328
317 321 325 328 330 324 317 318 333 335 338 336 342 343 343 345 346 346 346 345 343 339 340 339 339 337 337 336 335 334 334 333 332 330 330 330 327 327 327 327 327 327 326
317 320 324 327 330 331 330 327 335 336 337 340 343 343 344 345 345 346 345 344 342 341 337 337 337 337 335 335 334 333 333 332 331 331 330 329 326 328 327 327 327 327 324
318 321 323 326 328 331 333 335 337 337 338 340 342 343 345 343 343 343 344 342 338 338 335 335 336 330 329 329 329 331 331 332 331 326 328 329 327 328 329 327 327 326 324
318 320 324 326 328 331 333 336 337 338 340 341 343 344 344 344 341 339 338 336 335 334 335 335 334 333 329 330 330 330 329 327 325 330 330 330 329 326 327 327 326 326 327
318 321 323 326 328 331 335 337 339 340 342 342 343 344 345 342 339 337 337 335 334 335 335 334 333 331 327 331 330 330 329 327 325 328 327 330 327 326 327 326 326 326 326
318 321 323 328 330 335 336 338 338 340 343 342 345 346 344 339 338 335 328 334 334 334 334 332 330 329 329 329 329 329 328 326 327 327 328 328 327 325 325 326 326 325 326
318 320 325 328 330 336 337 336 340 343 345 346 345 340 338 338 331 328 330 331 334 332 330 331 328 332 328 328 328 327 327 327 327 327 327 327 326 325 326 326 325 326 326
318 321 326 328 334 336 335 335 340 346 344 340 338 338 335 329 329 329 329 332 331 330 330 330 328 327 327 326 326 326 326 327 327 327 327 326 326 326 325 326 325 326 324
319 322 327 329 335 335 336 338 341 340 338 338 338 333 328 329 329 328 328 330 329 330 329 331 327 326 326 327 326 326 325 326 327 327 327 326 325 325 325 324 324 326 325
323 325 328 333 335 337 339 340 338 337 339 333 327 327 330 328 328 327 326 326 329 330 330 327 326 326 326 326 326 325 326 327 327 327 326 326 325 324 324 324 323 322 324
324 328 332 335 337 336 338 337 335 334 330 328 329 330 330 329 327 326 325 326 328 329 327 326 326 327 326 327 326 325 325 326 326 326 326 325 325 324 323 323 323 323 325
325 332 334 333 334 334 334 333 331 330 329 330 330 330 329 329 329 327 327 327 328 327 327 326 325 325 325 324 323 323 322 324 324 324 323 323 323 322 322 323 323 323 324
331 332 333 333 333 332 332 330 330 329 330 330 330 330 329 329 325 325 325 325 325 326 326 326 325 327 324 324 324 322 323 323 324 324 323 322 322 323 322 322 324 323 325
331 330 331 331 331 331 331 330 329 328 328 328 328 328 327 326 324 324 325 324 325 326 326 325 325 324 324 324 323 323 323 322 322 322 323 325 324 322 322 323 323 323 323
330 331 332 331 331 330 329 328 328 327 326 326 325 324 324 324 324 324 324 324 325 325 325 325 325 325 324 324 324 323 322 322 322 323 323 323 322 322 322 322 323 324 323
330 331 330 330 330 331 330 329 329 328 326 325 324 324 323 323 323 324 323 324 325 324 325 324 324 324 323 323 323 322 322 321 321 322 323 323 322 322 323 323 323 324 323
330 330 330 330 330 330 328 329 327 327 326 324 323 324 323 323 323 323 323 324 324 324 324 326 326 326 324 323 323 323 321 321 321 321 322 323 323 322 322 322 324 323 323
329 329 329 329 328 329 329 327 327 327 325 323 323 323 322 322 322 322 321 323 324 324 323 323 324 325 325 324 323 321 321 322 322 321 321 321 322 322 325 324 322 324 323
329 329 328 328 328 327 327 325 326 327 325 323 321 321 321 322 322 323 322 323 323 324 323 323 322 322 324 324 324 324 323 323 323 323 323 323 325 324 324 323 324 324 323
330 330 329 329 327 327 328 328 327 326 323 322 322 322 322 323 323 323 323 323 321 321 322 323 323 324 323 323 323 324 325 325 325 325 324 323 323 324 324 325 326 325 324
328 327 326 327 327 328 328 325 322 322 322 322 322 322 323 323 324 323 324 323 322 322 322 323 323 324 325 325 324 323 324 325 325 325 324 325 325 324 325 324 323 324 324
328 327 327 327 327 327 327 324 322 321 322 323 324 323 323 323 323 323 322 321 321 322 323 323 324 325 325 324 325 325 324 324 325 324 324 324 324 324 323 322 323 322 320
327 327 327 327 326 326 325 323 322 322 323 324 323 323 323 323 322 323 322 322 322 322 323 325 324 324 324 324 323 322 322 323 323 323 322 321 321 320 319 317 315 312 307
Wind_Speed
22 25 26 31 32 29 28 30 29 32 35 32 29 28 27 26 28 28 22 19 19 18 17 17 17 17 17 18 15 15 15 13 15 7 11 11 10 10 10 13 11 10 13
23 24 25 26 30 32 30 30 27 27 28 26 23 23 24 25 27 25 23 19 19 18 18 18 18 17 19 15 16 15 13 13 13 10 9 8 7 7 9 9 11 8 12
24 24 25 26 27 32 32 30 29 26 27 26 23 24 25 26 25 23 21 21 18 18 20 21 21 19 18 16 15 14 14 12 11 9 7 8 8 10 6 7 14 12 13
25 25 25 26 26 31 33 31 27 26 26 26 25 24 25 24 23 23 22 19 18 18 20 21 19 19 17 17 14 15 13 12 11 10 9 7 10 11 8 7 13 14 12
26 27 27 25 25 27 28 30 27 26 27 26 25 24 24 25 24 22 21 20 19 19 20 19 16 16 18 17 14 16 14 13 12 12 13 9 11 14 14 12 12 14 12
27 29 28 26 26 26 29 27 27 27 27 27 27 26 26 24 26 27 22 21 20 19 20 17 15 18 17 18 18 17 15 14 14 14 14 12 13 14 15 16 15 14 11
28 29 27 26 26 27 28 27 27 28 29 29 28 27 27 25 29 27 25 22 21 17 15 14 14 13 18 19 21 21 18 16 14 13 13 12 14 16 14 16 16 13 9
29 28 28 25 28 27 29 28 28 28 32 33 31 29 30 30 25 27 25 18 16 15 14 13 14 16 17 18 20 20 19 16 16 13 12 11 11 11 17 16 14 15 11
30 27 27 24 27 27 31 31 31 33 34 33 34 33 30 27 30 29 24 17 14 13 11 11 10 11 14 17 17 17 16 17 16 15 11 10 10 11 14 17 15 13 10
29 28 24 24 26 28 34 33 34 36 38 37 33 27 28 34 32 27 22 14 14 12 11 13 13 12 12 13 15 15 16 14 13 13 12 14 15 14 12 10 12 11 9
29 27 24 23 22 33 31 35 38 41 39 34 30 33 35 31 30 26 21 15 14 12 11 10 12 13 12 12 14 14 13 13 14 12 12 13 12 15 14 14 14 10 10
32 27 24 23 27 30 38 40 42 43 39 39 40 37 29 29 27 24 20 17 15 13 14 12 14 14 12 10 17 13 14 12 12 13 16 16 16 14 16 16 16 10 11
26 25 19 21 32 38 43 41 39 38 45 43 39 35 26 26 25 22 19 17 19 16 14 16 16 15 13 14 14 14 13 13 11 13 16 16 16 14 15 15 17 15 12
24 20 26 36 38 40 40 40 39 45 42 33 30 28 25 22 23 23 22 21 22 18 18 18 18 18 15 15 16 14 9 7 8 11 11 14 15 15 15 13 13 12 10
21 38 39 37 39 38 37 36 46 41 37 31 28 26 25 23 21 21 20 18 16 18 20 22 20 16 18 16 13 11 9 7 9 12 13 14 14 14 12 13 12 12 11
21 36 39 43 44 44 47 43 34 34 30 26 25 21 18 19 22 23 21 20 18 19 20 21 20 15 16 14 12 11 8 9 9 10 10 11 13 12 12 13 13 13 9
32 36 42 46 44 48 44 41 39 33 28 23 23 22 21 21 24 22 20 19 19 19 18 22 21 18 16 13 11 10 9 8 10 10 10 11 11 13 13 13 12 11 12
34 38 37 38 35 32 30 30 32 28 28 26 21 19 20 24 22 21 21 21 21 18 16 21 20 18 16 13 10 9 10 9 9 11 11 13 12 12 12 13 12 10 9
37 34 33 32 32 32 30 29 28 26 25 28 26 24 22 21 20 20 19 19 19 15 18 18 17 16 14 12 10 9 9 9 9 9 10 12 12 11 10 11 11 10 11
33 33 33 31 31 30 32 28 26 29 30 25 24 26 24 24 23 21 17 16 18 16 22 17 15 13 11 9 8 8 9 8 8 10 11 12 13 12 10 11 9 10 9
33 32 32 30 30 27 26 25 31 31 29 21 24 24 24 22 20 18 18 18 18 22 22 17 12 11 10 9 7 9 8 7 7 9 10 12 11 13 10 10 10 12 13
31 30 28 26 26 25 26 26 28 29 26 24 24 23 24 24 22 22 22 23 22 19 17 13 12 11 10 8 9 7 8 7 9 7 9 10 10 8 8 10 8 8 8
27 24 23 23 26 27 28 28 27 29 27 29 29 27 25 24 25 23 27 26 21 19 19 17 16 13 11 10 13 9 6 6 5 5 4 6 7 6 6 7 7 6 3
22 24 24 26 27 26 28 30 29 27 33 31 28 24 25 24 24 23 26 22 21 20 18 16 14 12 10 11 12 9 9 7 5 6 8 8 10 10 9 9 9 9 8
20 22 23 26 28 31 33 33 31 31 34 30 27 25 26 25 24 27 23 22 21 19 16 14 11 10 9 9 10 9 8 5 5 3 3 3 4 5 5 4 4 3 1
24 25 29 30 30 34 35 34 32 34 32 27 25 24 25 25 25 25 23 22 20 17 15 13 15 15 14 13 11 9 8 7 6 6 8 9 9 10 8 7 5 4 4
Wind_Direction
295 286 277 266 260 261 260 256 257 250 244 241 236 239 227 219 216 223 217 213 219 215 225 226 222 217 218 222 223 236 235 238 248 221 243 264 273 266 241 221 218 209 207
291 287 277 268 260 255 255 252 253 242 234 226 219 217 210 210 215 217 208 203 205 217 215 208 210 219 213 215 223 229 234 234 233 237 238 249 250 246 226 226 210 201 197
286 281 275 268 262 254 251 250 247 237 226 222 211 210 204 203 207 204 202 204 208 220 213 218 211 207 211 220 220 232 227 223 229 228 228 227 222 223 208 224 199 186 180
283 275 272 262 261 253 247 246 243 233 221 220 211 204 199 200 200 200 196 200 210 211 212 215 209 210 212 218 221 222 217 213 215 211 216 217 222 214 205 201 186 189 188
280 275 270 263 262 259 250 242 238 227 218 213 206 200 197 196 196 193 195 200 199 200 207 212 211 211 217 218 217 220 215 210 213 210 210 209 218 210 207 193 194 191 190
276 273 269 265 259 256 250 241 231 221 212 203 201 195 192 194 197 192 188 191 189 203 210 211 215 226 225 224 220 226 219 208 211 214 210 217 219 210 202 196 195 182 174
272 271 266 264 259 254 245 234 222 212 201 194 192 187 190 188 198 198 191 184 188 191 194 202 206 222 223 225 226 227 225 218 209 212 212 212 219 209 195 193 194 176 190
268 265 266 264 256 250 235 223 212 202 195 186 183 182 178 194 190 179 178 177 183 191 198 206 214 222 230 217 229 223 220 218 212 210 213 215 215 203 194 192 187 183 196
265 263 267 261 251 230 220 211 203 191 183 180 174 175 176 179 171 171 173 177 190 192 201 209 218 221 224 214 213 216 203 206 203 207 211 197 166 176 183 184 184 181 175
261 268 265 258 243 226 210 204 190 179 170 169 166 171 173 166 167 173 170 180 186 192 188 208 195 192 207 202 204 198 197 196 193 200 190 173 164 166 170 179 173 174 182
263 268 267 252 222 219 210 190 176 167 164 163 159 159 163 168 169 177 176 186 191 179 181 176 183 183 185 189 189 185 187 187 184 173 172 171 164 173 172 169 170 190 194
262 266 261 219 215 200 184 175 165 168 160 158 156 157 163 169 173 178 186 179 169 173 171 166 169 161 162 170 179 177 176 180 188 189 183 178 175 191 191 187 181 171 184
255 258 228 211 187 186 165 169 165 158 157 154 157 158 158 166 174 180 182 177 159 166 164 163 160 158 161 158 155 170 171 170 184 186 185 202 188 194 200 196 193 193 204
240 228 185 174 165 169 165 160 154 155 154 152 152 158 158 161 170 174 172 167 163 169 166 158 155 150 149 151 149 149 152 164 184 187 185 194 192 193 192 193 194 195 199
245 174 163 165 160 151 150 149 155 156 156 155 159 163 164 167 171 171 166 165 164 167 163 157 153 151 155 153 154 155 161 157 163 179 188 187 186 186 185 190 187 196 199
149 148 152 151 151 151 148 146 149 152 151 158 161 162 165 175 174 166 170 174 174 170 169 164 161 161 163 162 160 162 158 161 166 163 167 176 176 179 181 187 196 195 202
153 147 151 149 147 145 148 153 152 153 158 157 158 165 171 170 162 165 169 165 164 166 171 174 173 168 166 163 163 164 165 172 179 174 174 170 174 186 190 196 196 207 225
154 148 138 139 140 143 143 143 145 137 137 141 147 149 154 154 162 164 164 162 163 169 171 175 171 172 171 169 166 171 174 180 180 187 191 187 186 190 191 204 204 201 210
143 139 134 140 143 144 142 140 139 140 142 143 138 140 150 154 156 160 163 165 168 174 169 169 167 166 168 174 174 175 180 185 185 183 190 190 195 195 201 209 217 216 218
138 139 135 138 140 140 143 139 144 149 148 141 149 152 153 157 157 158 165 168 169 171 157 148 152 158 164 165 173 176 183 198 199 199 194 196 201 204 212 208 204 226 223
141 141 139 138 141 140 142 145 151 150 148 143 149 154 158 158 155 165 175 161 148 164 155 143 145 150 162 170 174 185 165 173 170 182 201 208 209 204 204 222 227 235 211
137 136 138 142 145 142 148 147 153 153 150 150 149 154 161 160 157 154 152 153 141 142 148 147 145 147 128 132 151 152 168 191 178 185 200 188 197 209 221 217 211 208 218
141 140 139 140 150 153 151 152 155 156 152 146 145 149 153 155 154 153 156 149 148 158 153 142 144 148 152 143 142 130 119 129 148 159 150 169 177 193 213 224 214 209 214
138 143 146 149 151 153 154 152 145 149 150 149 151 155 155 157 156 162 160 164 156 154 149 152 159 158 159 164 175 171 175 164 167 199 196 192 205 213 215 225 231 231 246
142 145 150 157 161 161 157 152 152 155 152 152 150 153 156 159 161 159 160 160 159 158 158 158 157 158 158 161 158 158 162 159 157 153 155 155 165 178 205 213 198 194 172
147 152 153 157 157 156 158 160 159 155 155 151 154 154 156 157 157 160 160 160 160 157 154 149 143 139 138 136 132 123 118 113 113 115 114 105 109 107 104 103 103 93 79